URMN Weather Reports


time (UTC)temp
C
wind
direction
speed
KPH
gust
KPH
rain 1hr
cm
rain 24hr
cm
rain mn
cm
humidity
%
barometer
mb
20260508163042 15 200 17.7 0.0 0.00 0.00 0.00 72 1018.0
20260508160041 15 200 14.5 0.0 0.00 0.00 0.00 72 1018.0
20260508153042 15 190 11.3 0.0 0.00 0.00 0.00 67 1018.0
20260508150041 15 200 14.5 0.0 0.00 0.00 0.00 77 1018.0
20260508140041 17 10 11.3 0.0 0.00 0.00 0.00 63 1018.0
20260508133042 20 50 11.3 0.0 0.00 0.00 0.00 49 1017.0
20260508123043 20 360 6.4 0.0 0.00 0.00 0.00 46 1017.0
20260508120043 20 40 6.4 0.0 0.00 0.00 0.00 46 1017.0
20260508113043 20 20 6.4 0.0 0.00 0.00 0.00 43 1017.0
20260508110042 20 290 3.2 0.0 0.00 0.00 0.00 46 1018.0
20260508103042 20 290 3.2 0.0 0.00 0.00 0.00 46 1018.0
20260508100041 20 50 6.4 0.0 0.00 0.00 0.00 49 1018.0
20260508093043 20 50 6.4 0.0 0.00 0.00 0.00 49 1018.0
20260508090042 18 10 6.4 0.0 0.00 0.00 0.00 48 1019.0
20260508083042 18 10 6.4 0.0 0.00 0.00 0.00 48 1019.0
20260508080041 20 20 11.3 0.0 0.00 0.00 0.00 45 1019.0
20260508073042 18 30 6.4 0.0 0.00 0.00 0.00 48 1019.0
20260508070042 18 0 0.0 0.0 0.00 0.00 0.00 48 1019.0
20260508063042 17 70 3.2 0.0 0.00 0.00 0.00 51 1019.0
20260508060042 15 240 3.2 0.0 0.00 0.00 0.00 62 1019.0
20260508053042 15 240 3.2 0.0 0.00 0.00 0.00 62 1019.0
20260508050043 12 290 6.4 0.0 0.00 0.00 0.00 66 1019.0
20260508043042 12 290 6.4 0.0 0.00 0.00 0.00 66 1019.0
20260508040042 10 240 11.3 0.0 0.00 0.00 0.00 76 1019.0
20260508033042 10 240 11.3 0.0 0.00 0.00 0.00 76 1019.0
20260508030044 10 290 3.2 0.0 0.00 0.00 0.00 66 1018.0
20260508023043 10 290 3.2 0.0 0.00 0.00 0.00 66 1018.0
20260508020042 10 270 11.3 0.0 0.00 0.00 0.00 71 1018.0
20260508013046 10 270 11.3 0.0 0.00 0.00 0.00 71 1018.0
20260508003042 10 230 6.4 0.0 0.00 0.00 0.00 66 1018.0
20260508000043 10 220 6.4 0.0 0.00 0.00 0.00 66 1018.0
20260507233042 10 220 6.4 0.0 0.00 0.00 0.00 66 1018.0
20260507230043 11 240 6.4 0.0 0.00 0.00 0.00 62 1018.0
20260507223042 11 240 6.4 0.0 0.00 0.00 0.00 62 1018.0
20260507220043 11 210 11.3 0.0 0.00 0.00 0.00 62 1018.0
20260507213042 11 210 11.3 0.0 0.00 0.00 0.00 62 1018.0
20260507210043 11 230 11.3 0.0 0.00 0.00 0.00 66 1018.0
20260507203043 11 230 11.3 0.0 0.00 0.00 0.00 66 1018.0
20260507200043 10 230 11.3 0.0 0.00 0.00 0.00 76 1018.0
20260507193044 10 230 11.3 0.0 0.00 0.00 0.00 76 1018.0
20260507190044 13 260 6.4 0.0 0.00 0.00 0.00 58 1018.0
20260507180044 12 240 6.4 0.0 0.00 0.00 0.00 62 1017.0
20260507173044 12 240 6.4 0.0 0.00 0.00 0.00 62 1017.0
20260507170044 16 230 3.2 0.0 0.00 0.00 0.00 45 1017.0